Wind_Speed
15 14 13 12 12 11 10 10 10 11 11 12 14 16 19 21 21 21 23 22 21 20 18 17 15 14 14 14 13 13 13 13 13 13 14 14 14 14 14 15 15 16
17 16 16 15 14 14 14 13 13 12 12 13 14 16 19 21 20 21 22 22 20 19 17 16 15 14 14 14 13 13 13 14 14 14 14 15 15 15 15 15 16 17
19 18 17 16 16 17 17 16 15 14 14 14 15 16 19 20 20 21 22 21 20 18 17 15 14 13 14 14 13 14 14 14 14 14 14 15 15 16 16 16 17 17
22 21 19 19 19 19 19 18 17 16 16 16 16 17 18 20 20 21 22 21 19 18 16 15 14 13 13 13 13 13 14 14 15 15 15 15 16 16 16 17 17 17
24 23 22 22 22 22 21 20 18 17 18 18 18 18 18 20 21 21 22 22 20 18 17 15 14 14 13 13 13 13 13 14 16 16 16 16 16 16 17 17 17 17
27 26 25 25 25 25 23 22 20 19 20 19 19 19 19 20 21 21 22 22 20 18 17 15 15 15 15 14 14 14 14 14 16 17 17 17 17 16 17 18 18 18
30 29 29 28 28 26 25 23 21 21 21 21 20 20 21 21 21 22 22 21 19 18 17 16 15 16 16 16 15 15 15 15 16 17 18 17 17 17 18 19 19 18
33 33 32 31 29 28 26 24 23 23 23 22 22 22 21 21 21 22 22 20 18 17 16 15 15 15 16 16 16 16 16 16 17 17 17 17 17 17 19 20 20 20
34 36 34 33 32 30 28 26 25 24 25 24 23 22 20 20 23 23 22 20 17 16 15 14 14 14 15 16 15 15 15 15 16 17 16 17 17 18 19 21 21 20
33 36 37 35 34 31 29 28 27 27 26 25 24 22 20 21 24 23 21 19 16 14 14 13 13 13 14 14 14 14 14 14 15 16 16 17 18 19 20 21 21 21
32 34 37 37 35 33 31 30 30 29 28 27 26 24 22 22 23 21 19 18 14 13 13 12 12 13 13 14 14 14 14 14 15 15 16 17 18 20 21 21 22 22
34 34 36 37 35 33 32 32 31 31 30 30 28 24 22 22 21 20 19 16 12 12 12 12 12 13 13 13 14 15 15 16 16 17 17 18 19 20 22 22 22 22
39 37 36 35 34 32 32 32 32 33 33 31 27 23 22 20 18 18 18 14 11 12 12 12 13 14 14 14 14 15 16 17 18 19 19 19 20 21 22 23 23 23
45 40 33 30 31 31 32 33 34 35 34 31 27 25 22 18 17 18 16 12 12 12 12 12 14 15 16 17 17 18 19 19 20 21 21 21 22 23 24 24 24 24
47 40 30 28 32 33 33 35 36 35 34 31 28 26 22 18 19 18 15 13 13 12 12 14 15 17 19 20 21 21 22 23 24 24 24 25 24 24 25 25 25 25
46 41 33 29 33 36 35 35 36 35 33 31 28 24 19 17 18 17 14 13 13 13 14 16 17 19 21 22 24 24 25 26 27 27 28 29 27 26 25 25 26 26
42 39 33 31 31 33 33 34 34 33 32 31 27 20 16 17 17 15 13 13 13 14 16 18 20 22 23 25 26 27 28 30 30 31 31 32 31 29 27 26 26 27
40 33 31 31 29 30 33 33 31 30 30 31 26 18 16 17 16 14 13 13 14 16 18 20 22 24 26 28 29 30 31 33 34 34 34 34 34 33 30 27 27 28
37 29 28 28 26 31 37 34 29 28 28 26 21 17 17 17 16 14 14 14 16 18 19 21 23 25 27 30 32 33 34 35 36 36 36 36 36 36 33 30 28 29
32 28 26 23 24 33 36 30 27 27 25 22 18 17 17 16 15 15 15 16 18 20 22 23 24 25 27 30 31 33 34 36 37 38 37 36 35 36 35 32 30 30
29 26 24 21 22 28 30 27 25 24 23 20 18 17 16 16 16 17 17 18 20 22 24 26 25 26 27 28 30 31 34 36 38 39 39 37 34 34 35 34 32 31
28 26 24 22 21 23 26 25 23 23 24 21 17 15 16 17 18 18 18 20 22 24 27 28 27 27 28 29 30 32 34 37 38 39 39 37 33 32 35 36 34 31
26 24 24 23 23 24 24 22 22 23 24 20 16 15 17 19 19 20 21 22 24 26 28 29 29 29 30 31 32 33 35 37 38 39 38 36 34 33 35 37 36 33
24 22 24 25 24 23 22 21 22 22 20 17 15 16 18 20 21 22 23 24 26 27 28 29 29 30 31 33 33 34 36 37 38 38 37 36 35 34 37 39 37 32
24 23 26 26 22 21 22 22 21 19 18 16 16 18 19 22 24 25 24 25 26 27 28 29 29 30 31 33 34 35 37 37 37 37 38 37 36 36 40 41 37 31
23 23 24 22 22 23 23 22 19 17 16 16 17 19 22 24 24 24 23 22 24 26 27 28 29 29 30 32 35 36 37 37 37 36 36 38 38 39 40 40 37 31
Wind_Direction
226 229 234 242 251 261 272 283 293 302 312 324 333 339 345 348 348 349 349 344 338 332 327 324 319 313 308 305 307 309 309 310 310 308 306 303 299 297 299 302 304 306
233 234 238 246 253 261 271 279 288 295 303 312 321 330 340 345 347 347 346 342 336 332 328 323 317 313 311 310 312 312 311 310 308 307 306 302 301 301 304 306 305 304
239 240 243 248 253 260 268 275 282 287 293 302 311 320 332 341 344 344 343 339 334 331 329 324 319 317 315 314 313 311 309 307 305 305 305 304 304 305 305 305 302 302
246 246 247 249 253 258 264 271 276 280 285 294 303 313 324 334 338 339 338 336 333 331 329 328 325 323 319 316 313 310 307 305 305 306 306 305 304 304 302 301 301 302
248 249 250 251 253 256 261 266 270 273 280 288 297 306 315 325 331 334 333 332 331 330 330 329 328 324 322 319 316 312 308 308 309 309 309 306 302 301 300 299 301 304
245 248 249 249 250 253 257 261 263 268 276 284 293 301 307 316 324 327 328 330 329 328 329 329 328 325 323 322 319 316 313 310 309 309 309 305 302 300 299 300 302 304
242 243 244 246 248 251 254 256 259 265 274 282 289 296 302 310 318 321 324 327 326 326 328 328 327 325 322 320 317 315 315 313 312 310 308 304 301 301 300 301 303 304
246 243 242 244 246 249 252 253 257 263 272 279 285 292 299 307 316 318 320 322 323 324 327 326 324 321 317 315 313 312 314 314 313 310 306 303 302 302 302 303 304 305
248 244 244 245 246 248 250 252 255 262 270 275 281 288 295 304 312 314 315 317 319 322 323 321 317 313 311 309 308 310 312 312 310 308 306 304 304 304 302 303 305 305
247 244 243 246 247 247 249 251 254 261 266 270 276 282 291 304 309 308 309 311 316 320 318 314 312 308 305 303 305 308 310 310 308 307 308 308 306 305 303 303 304 304
248 245 243 244 245 247 249 251 254 258 262 267 273 279 289 302 305 302 304 307 312 316 314 312 310 305 301 301 304 308 309 308 307 308 310 310 308 306 303 303 303 303
252 247 241 241 243 245 247 249 252 255 260 266 272 278 289 298 297 295 298 301 308 313 312 313 311 306 303 303 305 308 309 309 310 310 310 310 309 307 304 302 302 302
255 244 234 236 241 243 244 247 251 254 260 266 268 275 288 291 286 285 288 294 305 311 312 314 313 309 306 305 307 310 311 312 311 310 310 309 309 307 305 303 302 301
247 236 228 231 235 238 241 245 250 254 259 263 265 274 284 283 275 277 281 292 306 310 311 313 312 311 308 306 307 309 309 311 309 308 308 309 308 307 306 304 302 301
240 235 235 233 228 232 242 247 249 253 257 259 265 275 279 272 270 275 282 297 307 308 310 310 310 310 308 305 306 306 306 307 306 307 308 308 307 306 304 303 301 300
247 247 251 247 234 233 241 243 246 251 255 259 268 275 270 263 268 276 286 299 304 304 307 309 309 309 305 303 303 303 304 305 305 307 309 309 306 303 302 301 299 299
258 257 261 256 242 235 235 238 245 251 254 261 271 272 263 264 271 278 290 299 302 305 309 311 311 309 307 305 304 302 302 303 305 307 310 311 307 303 300 299 298 298
267 265 262 256 246 234 231 237 246 252 257 265 271 267 261 268 274 281 293 302 303 307 310 310 310 309 308 308 308 307 305 304 305 306 308 309 308 303 299 299 298 298
279 271 261 258 249 235 231 235 242 248 257 263 263 259 261 269 277 285 295 301 302 304 305 305 307 308 308 309 310 309 308 306 305 305 305 307 307 303 298 297 298 298
286 278 267 259 246 238 237 236 237 242 250 252 249 253 262 269 277 285 291 295 297 299 300 301 303 305 306 306 306 306 305 303 301 301 302 303 304 301 297 296 297 296
288 280 267 251 239 238 236 230 228 233 239 240 241 251 261 267 274 280 284 288 291 293 294 296 299 301 300 299 298 297 297 297 297 297 298 299 299 298 296 295 295 293
290 280 264 247 231 226 222 217 217 223 229 232 236 246 257 265 271 276 280 283 286 288 289 292 295 297 295 292 290 289 289 291 292 293 294 295 294 293 293 294 294 291
286 274 262 246 222 210 210 210 212 218 225 229 232 242 255 264 269 273 277 281 283 285 287 290 292 293 291 288 286 285 286 287 288 289 290 291 290 289 289 289 288 286
278 267 258 245 220 202 199 203 211 220 223 225 230 240 253 261 266 269 273 277 280 284 287 289 290 290 289 287 285 285 285 286 285 285 286 288 290 288 284 281 279 279
275 269 261 244 214 194 195 200 208 216 219 222 229 239 250 259 265 270 274 278 281 285 288 290 290 288 286 285 285 285 286 285 284 284 287 289 290 288 284 280 279 280
270 266 255 229 198 194 202 203 204 211 219 227 236 244 254 261 267 273 278 282 285 288 290 291 292 291 288 286 285 285 285 285 283 284 287 287 287 288 288 287 286 286
Height
3191 3192 3192 3193 3193 3193 3193 3193 3192 3192 3191 3191 3190 3190 3189 3188 3187 3186 3185 3184 3182 3181 3179 3178 3177 3176 3176 3175 3174 3173 3172 3172 3171 3171 3171 3170 3169 3168 3168 3167 3166 3165
3189 3190 3190 3191 3191 3191 3191 3191 3190 3190 3190 3189 3189 3189 3188 3187 3186 3185 3184 3183 3181 3179 3178 3176 3175 3175 3174 3173 3172 3171 3171 3170 3170 3169 3169 3168 3167 3167 3166 3165 3164 3164
3187 3188 3188 3189 3189 3189 3189 3189 3189 3188 3188 3188 3188 3187 3187 3186 3185 3184 3183 3181 3180 3178 3176 3175 3174 3173 3172 3172 3171 3170 3169 3169 3168 3167 3167 3166 3166 3165 3164 3163 3163 3162
3185 3186 3186 3187 3187 3187 3187 3187 3187 3187 3187 3187 3186 3186 3185 3185 3184 3183 3181 3180 3178 3176 3175 3173 3172 3171 3171 3170 3169 3169 3168 3167 3166 3166 3165 3164 3164 3163 3162 3161 3161 3160
3183 3183 3184 3184 3184 3184 3185 3185 3185 3185 3185 3185 3185 3184 3184 3183 3182 3181 3179 3178 3176 3174 3172 3171 3170 3169 3169 3168 3168 3167 3166 3165 3164 3163 3163 3162 3162 3161 3160 3159 3159 3158
3179 3180 3181 3181 3181 3182 3182 3182 3183 3183 3183 3183 3183 3183 3182 3181 3180 3179 3177 3175 3173 3172 3170 3169 3168 3167 3167 3166 3166 3165 3164 3163 3162 3161 3161 3160 3159 3159 3158 3157 3156 3155
3176 3176 3177 3178 3178 3179 3180 3180 3180 3181 3181 3181 3181 3181 3180 3180 3179 3177 3175 3173 3171 3169 3168 3167 3166 3165 3164 3164 3163 3163 3162 3161 3160 3159 3159 3158 3158 3157 3156 3154 3154 3153
3173 3173 3174 3174 3176 3177 3177 3178 3178 3179 3179 3179 3179 3178 3178 3178 3177 3175 3173 3171 3169 3168 3166 3165 3164 3163 3162 3162 3162 3161 3160 3159 3158 3158 3157 3156 3155 3154 3153 3152 3151 3151
3169 3170 3170 3171 3173 3174 3174 3175 3176 3176 3177 3176 3176 3176 3176 3176 3175 3173 3172 3170 3168 3167 3165 3164 3163 3162 3161 3161 3160 3159 3158 3157 3156 3155 3155 3154 3153 3152 3151 3150 3149 3149
3166 3166 3167 3168 3169 3170 3171 3172 3173 3174 3174 3174 3173 3174 3174 3173 3173 3171 3170 3168 3167 3166 3164 3163 3162 3161 3161 3160 3159 3157 3156 3155 3154 3153 3152 3152 3151 3150 3149 3148 3148 3147
3162 3162 3163 3163 3165 3166 3167 3169 3170 3171 3170 3170 3171 3171 3171 3171 3170 3169 3168 3167 3166 3164 3163 3162 3161 3160 3159 3158 3157 3156 3154 3153 3152 3151 3150 3149 3149 3148 3147 3146 3145 3145
3157 3157 3158 3160 3161 3163 3165 3166 3167 3168 3168 3168 3168 3168 3168 3168 3167 3167 3166 3165 3164 3162 3161 3160 3159 3158 3157 3156 3155 3154 3152 3151 3150 3148 3148 3147 3146 3145 3144 3144 3143 3142
3151 3150 3153 3157 3159 3161 3163 3164 3165 3165 3165 3165 3166 3166 3166 3166 3165 3165 3164 3162 3161 3160 3159 3158 3157 3156 3155 3154 3153 3151 3150 3149 3148 3147 3146 3145 3144 3143 3142 3141 3140 3139
3142 3145 3152 3157 3159 3161 3161 3162 3162 3162 3163 3163 3163 3163 3164 3164 3163 3162 3161 3160 3159 3158 3157 3156 3155 3154 3153 3152 3150 3149 3148 3147 3146 3145 3144 3142 3141 3140 3139 3138 3137 3136
3138 3146 3154 3156 3157 3158 3158 3158 3159 3160 3160 3160 3160 3161 3162 3161 3160 3159 3158 3157 3156 3156 3155 3154 3153 3152 3151 3150 3148 3147 3146 3145 3144 3143 3142 3140 3139 3137 3136 3135 3133 3132
3142 3147 3152 3153 3153 3153 3154 3155 3156 3157 3158 3157 3158 3159 3159 3158 3157 3156 3155 3154 3153 3153 3153 3152 3151 3150 3149 3148 3146 3145 3144 3143 3142 3141 3139 3138 3136 3135 3133 3132 3130 3129
3142 3145 3148 3149 3148 3148 3150 3151 3152 3154 3154 3154 3156 3157 3156 3155 3154 3154 3152 3151 3150 3150 3150 3149 3148 3147 3146 3145 3143 3142 3141 3139 3138 3137 3136 3134 3133 3131 3130 3129 3127 3126
3137 3142 3142 3142 3143 3144 3145 3146 3148 3150 3150 3151 3152 3153 3152 3152 3152 3151 3149 3148 3147 3147 3147 3146 3145 3144 3143 3141 3140 3138 3137 3136 3135 3134 3132 3131 3129 3128 3127 3126 3124 3123
3133 3137 3137 3138 3141 3141 3140 3141 3144 3146 3147 3148 3149 3149 3149 3149 3149 3148 3147 3145 3144 3144 3143 3143 3142 3141 3140 3138 3136 3135 3133 3132 3131 3129 3128 3127 3126 3125 3123 3122 3121 3120
3128 3131 3132 3134 3136 3135 3136 3138 3140 3142 3144 3145 3145 3146 3146 3146 3146 3145 3144 3142 3142 3141 3140 3140 3139 3138 3136 3135 3133 3132 3130 3128 3126 3125 3124 3123 3122 3121 3120 3119 3118 3116
3124 3125 3127 3128 3128 3129 3131 3133 3135 3138 3140 3141 3141 3142 3143 3143 3143 3142 3141 3140 3139 3138 3137 3136 3136 3135 3133 3132 3130 3129 3127 3125 3123 3121 3120 3119 3119 3118 3117 3116 3115 3113
3120 3121 3123 3123 3124 3125 3126 3129 3131 3133 3135 3136 3138 3139 3140 3140 3140 3139 3138 3137 3136 3135 3134 3133 3133 3132 3130 3129 3128 3126 3124 3122 3120 3118 3116 3116 3115 3115 3114 3113 3112 3111
3116 3118 3119 3120 3120 3122 3124 3126 3128 3130 3132 3133 3133 3135 3136 3136 3136 3136 3135 3134 3132 3132 3131 3130 3130 3129 3128 3126 3125 3123 3121 3119 3117 3115 3113 3112 3111 3111 3111 3109 3108 3107
3111 3113 3115 3116 3117 3119 3121 3124 3126 3128 3129 3129 3130 3131 3132 3133 3133 3132 3131 3130 3129 3129 3128 3127 3126 3126 3124 3122 3121 3119 3117 3115 3113 3111 3109 3108 3108 3108 3106 3103 3102 3103
3108 3109 3110 3112 3114 3115 3117 3120 3122 3124 3125 3125 3126 3128 3129 3130 3130 3129 3128 3127 3126 3125 3124 3123 3122 3121 3120 3118 3116 3115 3113 3111 3109 3107 3105 3104 3104 3103 3100 3098 3099 3100
3105 3106 3107 3108 3110 3111 3113 3115 3117 3119 3121 3122 3123 3125 3126 3127 3126 3126 3125 3124 3123 3121 3120 3119 3118 3117 3116 3114 3112 3110 3109 3106 3104 3103 3102 3101 3099 3097 3096 3096 3097 3096